Time,TemperatureF,DewpointF,PressureIn,WindDirection,WindDirectionDegrees,WindSpeedMPH,WindSpeedGustMPH,Humidity,HourlyPrecipIn,Conditions,Clouds,dailyrainin,SoftwareType,DateUTC
2013-08-09 00:01:00,69.8,64.7,29.96,North,0,1.8,1.8,84,0.00,,,0.00,WUHU216HW,2013-08-09 05:01:00,
2013-08-09 00:06:00,69.8,64.7,29.96,NNE,23,1.8,2.7,84,0.00,,,0.00,WUHU216HW,2013-08-09 05:06:00,
2013-08-09 00:11:00,69.8,64.7,29.96,North,0,1.8,2.7,84,0.00,,,0.00,WUHU216HW,2013-08-09 05:11:00,
2013-08-09 00:16:00,69.8,64.7,29.96,North,0,2.2,2.2,84,0.00,,,0.00,WUHU216HW,2013-08-09 05:16:00,
2013-08-09 00:21:00,69.7,64.9,29.96,North,0,1.8,2.5,85,0.00,,,0.00,WUHU216HW,2013-08-09 05:21:00,
2013-08-09 00:26:00,69.5,64.7,29.96,North,0,4.0,4.0,85,0.00,,,0.00,WUHU216HW,2013-08-09 05:26:00,
2013-08-09 00:31:00,69.5,64.7,29.96,North,0,3.1,4.0,85,0.00,,,0.00,WUHU216HW,2013-08-09 05:31:00,
2013-08-09 00:36:00,69.5,64.7,29.96,NNW,338,0.9,4.0,85,0.00,,,0.00,WUHU216HW,2013-08-09 05:36:00,
2013-08-09 00:41:00,69.3,64.5,29.96,NNW,338,1.6,1.6,85,0.00,,,0.00,WUHU216HW,2013-08-09 05:41:00,
2013-08-09 00:46:00,69.3,64.9,29.96,North,0,3.6,3.6,86,0.00,,,0.00,WUHU216HW,2013-08-09 05:46:00,
2013-08-09 00:51:00,69.1,64.4,29.95,NNE,23,3.1,3.6,85,0.00,,,0.00,WUHU216HW,2013-08-09 05:51:00,
2013-08-09 00:56:00,69.1,64.7,29.95,NNE,23,3.8,3.8,86,0.00,,,0.00,WUHU216HW,2013-08-09 05:56:00,
2013-08-09 01:01:00,68.9,64.5,29.96,North,0,0.7,3.8,86,0.00,,,0.00,WUHU216HW,2013-08-09 06:01:00,
2013-08-09 01:06:00,68.8,64.4,29.95,NNE,23,1.8,3.8,86,0.00,,,0.00,WUHU216HW,2013-08-09 06:06:00,
2013-08-09 01:11:00,68.6,64.2,29.96,NNE,23,1.6,1.8,86,0.00,,,0.00,WUHU216HW,2013-08-09 06:11:00,
2013-08-09 01:16:00,68.4,64.0,29.95,North,0,1.6,1.8,86,0.00,,,0.00,WUHU216HW,2013-08-09 06:16:00,
2013-08-09 01:21:00,68.4,64.4,29.96,North,0,1.6,2.5,87,0.00,,,0.00,WUHU216HW,2013-08-09 06:21:00,
2013-08-09 01:26:00,68.2,63.9,29.95,North,0,1.1,2.5,86,0.00,,,0.00,WUHU216HW,2013-08-09 06:26:00,
2013-08-09 01:31:00,68.0,64.0,29.96,NNE,23,0.0,1.6,87,0.00,,,0.00,WUHU216HW,2013-08-09 06:31:00,
2013-08-09 01:36:00,67.9,64.2,29.96,North,0,2.0,2.0,88,0.00,,,0.00,WUHU216HW,2013-08-09 06:36:00,
2013-08-09 01:41:00,67.9,64.2,29.96,North,0,1.8,2.0,88,0.00,,,0.00,WUHU216HW,2013-08-09 06:41:00,
2013-08-09 01:46:00,68.0,64.4,29.96,North,0,1.3,2.0,88,0.00,,,0.00,WUHU216HW,2013-08-09 06:46:00,
2013-08-09 01:51:00,67.9,64.2,29.96,North,0,0.7,1.8,88,0.00,,,0.00,WUHU216HW,2013-08-09 06:51:00,
2013-08-09 01:56:00,67.9,64.2,29.96,North,0,1.1,1.6,88,0.00,,,0.00,WUHU216HW,2013-08-09 06:56:00,
2013-08-09 02:01:00,68.0,64.4,29.96,North,0,1.8,1.8,88,0.00,,,0.00,WUHU216HW,2013-08-09 07:01:00,
2013-08-09 02:06:00,68.0,64.4,29.96,North,0,1.1,1.8,88,0.00,,,0.00,WUHU216HW,2013-08-09 07:06:00,
2013-08-09 02:11:00,68.4,64.4,29.96,NNE,23,0.4,1.8,87,0.00,,,0.00,WUHU216HW,2013-08-09 07:11:00,
2013-08-09 02:16:00,68.4,64.4,29.96,North,0,0.4,0.9,87,0.00,,,0.00,WUHU216HW,2013-08-09 07:16:00,
2013-08-09 02:21:00,68.4,64.4,29.96,North,0,1.6,1.6,87,0.00,,,0.00,WUHU216HW,2013-08-09 07:21:00,
2013-08-09 02:26:00,68.8,64.4,29.96,NNE,23,2.9,2.9,86,0.00,,,0.00,WUHU216HW,2013-08-09 07:26:00,
2013-08-09 02:31:00,68.8,64.4,29.96,NNE,23,1.6,2.9,86,0.00,,,0.00,WUHU216HW,2013-08-09 07:31:00,
2013-08-09 02:36:00,68.8,64.4,29.96,NNE,23,1.6,2.9,86,0.00,,,0.00,WUHU216HW,2013-08-09 07:36:00,
2013-08-09 02:41:00,68.8,64.4,29.96,NNE,23,2.0,2.0,86,0.00,,,0.00,WUHU216HW,2013-08-09 07:41:00,
2013-08-09 02:46:00,68.8,64.4,29.95,NNE,23,4.0,4.0,86,0.00,,,0.00,WUHU216HW,2013-08-09 07:46:00,
2013-08-09 02:51:00,68.8,64.4,29.95,NNW,338,1.1,4.0,86,0.00,,,0.00,WUHU216HW,2013-08-09 07:51:00,
2013-08-09 02:56:00,68.9,64.3,29.95,North,0,2.2,4.0,85,0.00,,,0.00,WUHU216HW,2013-08-09 07:56:00,
2013-08-09 03:01:00,68.9,64.3,29.95,North,0,2.9,3.1,85,0.00,,,0.00,WUHU216HW,2013-08-09 08:01:00,
2013-08-09 03:06:00,68.9,64.3,29.95,North,0,1.8,2.9,85,0.00,,,0.00,WUHU216HW,2013-08-09 08:06:00,
2013-08-09 03:11:00,68.9,64.3,29.94,NNE,23,1.1,2.9,85,0.00,,,0.00,WUHU216HW,2013-08-09 08:11:00,
2013-08-09 03:16:00,68.9,64.3,29.95,North,0,1.8,2.2,85,0.00,,,0.00,WUHU216HW,2013-08-09 08:16:00,
2013-08-09 03:21:00,68.9,64.3,29.95,North,0,2.5,2.5,85,0.00,,,0.00,WUHU216HW,2013-08-09 08:21:00,
2013-08-09 03:26:00,68.8,64.4,29.95,NNE,23,2.2,2.5,86,0.00,,,0.00,WUHU216HW,2013-08-09 08:26:00,
2013-08-09 03:31:00,68.8,64.4,29.95,NNE,23,2.0,2.5,86,0.00,,,0.00,WUHU216HW,2013-08-09 08:31:00,
2013-08-09 03:36:00,68.6,64.2,29.94,NNE,23,2.0,2.5,86,0.00,,,0.00,WUHU216HW,2013-08-09 08:36:00,
2013-08-09 03:41:00,68.8,64.4,29.95,North,0,2.7,2.7,86,0.00,,,0.00,WUHU216HW,2013-08-09 08:41:00,
2013-08-09 03:46:00,68.6,64.2,29.95,North,0,2.0,2.7,86,0.00,,,0.00,WUHU216HW,2013-08-09 08:46:00,
2013-08-09 03:51:00,68.6,64.2,29.95,North,0,2.5,2.7,86,0.00,,,0.00,WUHU216HW,2013-08-09 08:51:00,
2013-08-09 03:56:00,68.4,64.0,29.95,North,0,3.4,3.4,86,0.00,,,0.00,WUHU216HW,2013-08-09 08:56:00,
2013-08-09 04:01:00,68.4,64.4,29.95,North,0,1.8,3.4,87,0.00,,,0.00,WUHU216HW,2013-08-09 09:01:00,
2013-08-09 04:06:00,68.2,64.2,29.95,NNE,23,1.8,3.4,87,0.00,,,0.00,WUHU216HW,2013-08-09 09:06:00,
2013-08-09 04:11:00,68.2,64.2,29.96,NNW,338,1.8,1.8,87,0.00,,,0.00,WUHU216HW,2013-08-09 09:11:00,
2013-08-09 04:16:00,68.4,64.0,29.96,North,0,1.3,1.8,86,0.00,,,0.00,WUHU216HW,2013-08-09 09:16:00,
2013-08-09 04:21:00,68.6,64.2,29.96,NNE,23,1.3,1.8,86,0.00,,,0.00,WUHU216HW,2013-08-09 09:21:00,
2013-08-09 04:26:00,68.6,64.2,29.96,NNE,23,1.3,2.0,86,0.00,,,0.00,WUHU216HW,2013-08-09 09:26:00,
2013-08-09 04:31:00,68.4,64.0,29.96,NE,45,0.7,2.0,86,0.00,,,0.00,WUHU216HW,2013-08-09 09:31:00,
2013-08-09 04:36:00,68.4,64.0,29.96,NE,45,2.7,2.7,86,0.00,,,0.00,WUHU216HW,2013-08-09 09:36:00,
2013-08-09 04:41:00,68.6,64.2,29.96,NE,45,3.1,3.1,86,0.00,,,0.00,WUHU216HW,2013-08-09 09:41:00,
2013-08-09 04:46:00,68.8,64.1,29.96,ENE,68,1.8,3.1,85,0.00,,,0.00,WUHU216HW,2013-08-09 09:46:00,
2013-08-09 04:51:00,68.8,64.1,29.96,ENE,68,2.5,3.1,85,0.00,,,0.00,WUHU216HW,2013-08-09 09:51:00,
2013-08-09 04:56:00,68.8,64.1,29.96,ENE,68,1.1,2.5,85,0.00,,,0.00,WUHU216HW,2013-08-09 09:56:00,
2013-08-09 05:01:00,68.8,63.7,29.96,NE,45,1.8,1.8,84,0.00,,,0.00,WUHU216HW,2013-08-09 10:01:00,
2013-08-09 05:06:00,68.8,64.1,29.96,ENE,68,1.8,1.8,85,0.00,,,0.00,WUHU216HW,2013-08-09 10:06:00,
2013-08-09 05:11:00,68.8,64.1,29.96,NE,45,0.4,1.8,85,0.00,,,0.00,WUHU216HW,2013-08-09 10:11:00,
2013-08-09 05:16:00,68.8,64.1,29.96,NE,45,1.8,1.8,85,0.00,,,0.00,WUHU216HW,2013-08-09 10:16:00,
2013-08-09 05:21:00,68.8,64.1,29.96,NE,45,1.1,1.8,85,0.00,,,0.00,WUHU216HW,2013-08-09 10:21:00,
2013-08-09 05:26:00,68.8,63.7,29.96,ENE,68,2.5,2.5,84,0.00,,,0.00,WUHU216HW,2013-08-09 10:26:00,
2013-08-09 05:31:00,68.8,63.7,29.96,East,90,1.8,2.5,84,0.00,,,0.00,WUHU216HW,2013-08-09 10:31:00,
2013-08-09 05:36:00,68.9,63.9,29.96,ENE,68,2.5,2.5,84,0.00,,,0.00,WUHU216HW,2013-08-09 10:36:00,
2013-08-09 05:41:00,69.1,64.1,29.96,ENE,68,1.8,2.5,84,0.00,,,0.00,WUHU216HW,2013-08-09 10:41:00,
2013-08-09 05:46:00,68.9,63.9,29.96,ENE,68,2.7,2.7,84,0.00,,,0.00,WUHU216HW,2013-08-09 10:46:00,
2013-08-09 05:51:00,68.9,63.9,29.96,NE,45,2.9,2.9,84,0.00,,,0.00,WUHU216HW,2013-08-09 10:51:00,
2013-08-09 05:56:00,68.9,63.9,29.96,NE,45,1.1,2.9,84,0.00,,,0.00,WUHU216HW,2013-08-09 10:56:00,
2013-08-09 06:01:00,68.8,63.7,29.95,NNE,23,2.7,2.9,84,0.00,,,0.00,WUHU216HW,2013-08-09 11:01:00,
2013-08-09 06:06:00,68.4,63.7,29.95,NNE,23,3.4,3.4,85,0.00,,,0.00,WUHU216HW,2013-08-09 11:06:00,
2013-08-09 06:11:00,68.2,63.9,29.95,NNE,23,3.8,3.8,86,0.00,,,0.00,WUHU216HW,2013-08-09 11:11:00,
2013-08-09 06:16:00,68.0,63.7,29.95,NNE,23,5.1,5.1,86,0.00,,,0.00,WUHU216HW,2013-08-09 11:16:00,
2013-08-09 06:21:00,68.0,64.0,29.95,North,0,3.4,5.1,87,0.00,,,0.00,WUHU216HW,2013-08-09 11:21:00,
2013-08-09 06:26:00,68.0,64.0,29.96,NNE,23,4.7,5.1,87,0.00,,,0.00,WUHU216HW,2013-08-09 11:26:00,
2013-08-09 06:31:00,68.0,64.0,29.96,NNE,23,3.6,4.7,87,0.00,,,0.00,WUHU216HW,2013-08-09 11:31:00,
2013-08-09 06:36:00,67.7,64.0,29.96,NNE,23,2.5,4.7,88,0.00,,,0.00,WUHU216HW,2013-08-09 11:36:00,
2013-08-09 06:41:00,67.9,64.2,29.96,NNE,23,3.4,4.7,88,0.00,,,0.00,WUHU216HW,2013-08-09 11:41:00,
2013-08-09 06:46:00,67.7,64.0,29.96,NNE,23,1.3,3.4,88,0.00,,,0.00,WUHU216HW,2013-08-09 11:46:00,
2013-08-09 06:51:00,67.7,64.0,29.96,NNW,338,2.5,3.4,88,0.00,,,0.00,WUHU216HW,2013-08-09 11:51:00,
2013-08-09 06:56:00,67.9,64.2,29.96,North,0,2.9,3.6,88,0.00,,,0.00,WUHU216HW,2013-08-09 11:56:00,
2013-08-09 07:01:00,68.0,64.4,29.96,NNE,23,1.8,3.6,88,0.00,,,0.00,WUHU216HW,2013-08-09 12:01:00,
2013-08-09 07:06:00,68.0,64.4,29.96,NNE,23,3.6,3.6,88,0.00,,,0.00,WUHU216HW,2013-08-09 12:06:00,
2013-08-09 07:11:00,68.0,64.4,29.96,North,0,3.1,3.6,88,0.00,,,0.00,WUHU216HW,2013-08-09 12:11:00,
2013-08-09 07:16:00,68.0,64.4,29.96,NNE,23,3.1,3.4,88,0.00,,,0.00,WUHU216HW,2013-08-09 12:16:00,
2013-08-09 07:21:00,68.0,64.4,29.96,NNE,23,3.8,3.8,88,0.00,,,0.00,WUHU216HW,2013-08-09 12:21:00,
2013-08-09 07:26:00,68.2,64.5,29.96,North,0,3.6,3.8,88,0.00,,,0.00,WUHU216HW,2013-08-09 12:26:00,
2013-08-09 07:31:00,68.4,64.7,29.96,North,0,1.1,3.6,88,0.00,,,0.00,WUHU216HW,2013-08-09 12:31:00,
2013-08-09 07:36:00,68.4,64.7,29.96,North,0,3.8,3.8,88,0.00,,,0.00,WUHU216HW,2013-08-09 12:36:00,
2013-08-09 07:41:00,68.4,64.7,29.95,ENE,68,2.0,3.8,88,0.00,,,0.00,WUHU216HW,2013-08-09 12:41:00,
2013-08-09 07:46:00,68.4,64.7,29.95,NE,45,2.5,2.7,88,0.00,,,0.00,WUHU216HW,2013-08-09 12:46:00,
2013-08-09 07:51:00,68.6,64.9,29.96,NNE,23,2.9,2.9,88,0.00,,,0.00,WUHU216HW,2013-08-09 12:51:00,
2013-08-09 07:56:00,68.6,64.9,29.96,NE,45,2.2,2.9,88,0.00,,,0.00,WUHU216HW,2013-08-09 12:56:00,
2013-08-09 08:01:00,68.6,64.9,29.96,NE,45,2.5,2.5,88,0.00,,,0.00,WUHU216HW,2013-08-09 13:01:00,
2013-08-09 08:06:00,68.8,64.7,29.96,NNE,23,2.9,2.9,87,0.00,,,0.00,WUHU216HW,2013-08-09 13:06:00,
2013-08-09 08:11:00,68.8,65.1,29.96,NNE,23,4.0,4.0,88,0.00,,,0.00,WUHU216HW,2013-08-09 13:11:00,
2013-08-09 08:16:00,68.8,65.1,29.97,NE,45,3.6,4.0,88,0.00,,,0.00,WUHU216HW,2013-08-09 13:16:00,
2013-08-09 08:21:00,68.8,65.1,29.97,NNE,23,3.1,4.0,88,0.00,,,0.00,WUHU216HW,2013-08-09 13:21:00,
2013-08-09 08:26:00,68.9,65.3,29.97,NE,45,3.4,3.6,88,0.00,,,0.00,WUHU216HW,2013-08-09 13:26:00,
2013-08-09 08:31:00,69.1,65.1,29.98,NE,45,2.7,3.4,87,0.00,,,0.00,WUHU216HW,2013-08-09 13:31:00,
2013-08-09 08:36:00,69.1,65.1,29.98,NNE,23,2.9,3.4,87,0.00,,,0.00,WUHU216HW,2013-08-09 13:36:00,
2013-08-09 08:41:00,69.1,65.1,29.98,NNE,23,1.6,2.9,87,0.00,,,0.00,WUHU216HW,2013-08-09 13:41:00,
2013-08-09 08:46:00,68.9,64.9,29.99,North,0,1.8,2.5,87,0.00,,,0.00,WUHU216HW,2013-08-09 13:46:00,
2013-08-09 08:51:00,69.1,65.1,29.99,North,0,1.1,1.8,87,0.00,,,0.00,WUHU216HW,2013-08-09 13:51:00,
2013-08-09 08:56:00,68.9,64.9,29.99,NE,45,0.9,1.8,87,0.00,,,0.00,WUHU216HW,2013-08-09 13:56:00,
2013-08-09 09:01:00,68.9,64.9,29.99,ENE,68,1.1,1.1,87,0.00,,,0.00,WUHU216HW,2013-08-09 14:01:00,
2013-08-09 09:06:00,68.9,64.9,30.00,East,90,0.9,1.1,87,0.00,,,0.00,WUHU216HW,2013-08-09 14:06:00,
2013-08-09 09:11:00,69.1,65.1,30.00,ENE,68,1.6,1.6,87,0.00,,,0.00,WUHU216HW,2013-08-09 14:11:00,
2013-08-09 09:16:00,69.1,65.1,30.00,SSE,158,0.4,1.6,87,0.00,,,0.00,WUHU216HW,2013-08-09 14:16:00,
2013-08-09 09:21:00,69.3,65.3,30.00,SE,135,1.6,1.6,87,0.00,,,0.00,WUHU216HW,2013-08-09 14:21:00,
2013-08-09 09:26:00,69.5,65.4,30.00,SSE,158,1.6,1.8,87,0.00,,,0.00,WUHU216HW,2013-08-09 14:26:00,
2013-08-09 09:31:00,69.5,65.4,30.00,SSE,158,0.0,1.8,87,0.01,,,0.01,WUHU216HW,2013-08-09 14:31:00,
2013-08-09 09:36:00,69.5,65.4,30.00,ESE,113,0.4,1.6,87,0.01,,,0.01,WUHU216HW,2013-08-09 14:36:00,
2013-08-09 09:41:00,69.5,65.7,30.00,NNE,23,1.6,1.8,88,0.01,,,0.01,WUHU216HW,2013-08-09 14:41:00,
2013-08-09 09:46:00,69.7,65.9,30.00,NNE,23,1.6,1.8,88,0.01,,,0.01,WUHU216HW,2013-08-09 14:46:00,
2013-08-09 09:51:00,69.7,65.9,30.00,North,0,0.7,1.6,88,0.01,,,0.01,WUHU216HW,2013-08-09 14:51:00,
2013-08-09 09:56:00,69.8,66.1,30.00,North,0,1.1,1.6,88,0.01,,,0.01,WUHU216HW,2013-08-09 14:56:00,
2013-08-09 10:01:00,70.2,66.2,30.00,NNE,23,1.1,1.3,87,0.01,,,0.01,WUHU216HW,2013-08-09 15:01:00,
2013-08-09 10:06:00,70.2,66.2,30.00,North,0,1.6,1.6,87,0.01,,,0.01,WUHU216HW,2013-08-09 15:06:00,
2013-08-09 10:11:00,70.7,66.3,30.00,NNE,23,1.8,1.8,86,0.01,,,0.01,WUHU216HW,2013-08-09 15:11:00,
2013-08-09 10:16:00,70.7,66.3,30.00,NE,45,1.8,1.8,86,0.01,,,0.01,WUHU216HW,2013-08-09 15:16:00,
2013-08-09 10:21:00,70.7,66.3,30.00,NNE,23,2.5,2.5,86,0.01,,,0.01,WUHU216HW,2013-08-09 15:21:00,
2013-08-09 10:26:00,70.7,66.7,30.00,NNE,23,3.4,3.4,87,0.01,,,0.01,WUHU216HW,2013-08-09 15:26:00,
2013-08-09 10:31:00,70.7,66.7,30.00,NNE,23,3.4,3.4,87,0.00,,,0.01,WUHU216HW,2013-08-09 15:31:00,
2013-08-09 10:36:00,70.6,66.2,30.00,NNE,23,5.1,5.1,86,0.00,,,0.01,WUHU216HW,2013-08-09 15:36:00,
2013-08-09 10:41:00,70.7,66.7,29.99,NNE,23,2.5,5.1,87,0.00,,,0.01,WUHU216HW,2013-08-09 15:41:00,
2013-08-09 10:46:00,70.9,66.9,29.99,North,0,4.0,4.0,87,0.00,,,0.01,WUHU216HW,2013-08-09 15:46:00,
2013-08-09 10:51:00,70.9,66.9,29.99,North,0,3.6,4.0,87,0.00,,,0.01,WUHU216HW,2013-08-09 15:51:00,
2013-08-09 10:56:00,71.3,66.9,29.99,North,0,4.0,4.0,86,0.00,,,0.01,WUHU216HW,2013-08-09 15:56:00,
2013-08-09 11:01:00,71.6,67.2,30.00,NNW,338,0.9,4.0,86,0.00,,,0.01,WUHU216HW,2013-08-09 16:01:00,
2013-08-09 11:06:00,71.8,67.1,30.00,NNW,338,3.1,3.1,85,0.00,,,0.01,WUHU216HW,2013-08-09 16:06:00,
2013-08-09 11:11:00,72.4,67.6,30.00,NE,45,2.5,4.0,85,0.00,,,0.01,WUHU216HW,2013-08-09 16:11:00,
2013-08-09 11:16:00,72.5,67.8,30.00,NNE,23,4.7,4.7,85,0.00,,,0.01,WUHU216HW,2013-08-09 16:16:00,
2013-08-09 11:21:00,72.5,67.4,30.00,North,0,2.5,4.7,84,0.00,,,0.01,WUHU216HW,2013-08-09 16:21:00,
2013-08-09 11:26:00,72.5,67.4,30.01,NNE,23,2.5,4.7,84,0.00,,,0.01,WUHU216HW,2013-08-09 16:26:00,
2013-08-09 11:31:00,72.5,67.4,30.01,North,0,3.6,3.6,84,0.00,,,0.01,WUHU216HW,2013-08-09 16:31:00,
2013-08-09 11:36:00,72.5,67.4,30.01,NNW,338,2.5,3.6,84,0.00,,,0.01,WUHU216HW,2013-08-09 16:36:00,
2013-08-09 11:41:00,72.7,67.6,30.01,NNE,23,1.8,3.6,84,0.00,,,0.01,WUHU216HW,2013-08-09 16:41:00,
2013-08-09 11:46:00,72.9,67.8,30.01,NNW,338,0.9,1.8,84,0.00,,,0.01,WUHU216HW,2013-08-09 16:46:00,
2013-08-09 11:51:00,73.1,68.0,30.01,NE,45,2.5,2.5,84,0.00,,,0.01,WUHU216HW,2013-08-09 16:51:00,
2013-08-09 11:56:00,73.1,68.3,30.01,North,0,2.5,2.5,85,0.00,,,0.01,WUHU216HW,2013-08-09 16:56:00,
2013-08-09 12:01:00,73.1,68.0,30.02,NE,45,1.3,2.5,84,0.00,,,0.01,WUHU216HW,2013-08-09 17:01:00,
2013-08-09 12:06:00,73.3,68.1,30.02,North,0,0.2,2.5,84,0.00,,,0.01,WUHU216HW,2013-08-09 17:06:00,
2013-08-09 12:11:00,73.6,68.5,30.02,NNE,23,1.8,1.8,84,0.00,,,0.01,WUHU216HW,2013-08-09 17:11:00,
2013-08-09 12:16:00,73.8,68.3,30.02,ENE,68,1.1,1.8,83,0.00,,,0.01,WUHU216HW,2013-08-09 17:16:00,
2013-08-09 12:21:00,73.6,68.5,30.02,NE,45,0.4,1.8,84,0.00,,,0.01,WUHU216HW,2013-08-09 17:21:00,
2013-08-09 12:26:00,73.6,68.5,30.02,East,90,1.3,2.5,84,0.00,,,0.01,WUHU216HW,2013-08-09 17:26:00,
2013-08-09 12:31:00,73.4,68.0,30.02,NE,45,2.9,2.9,83,0.00,,,0.01,WUHU216HW,2013-08-09 17:31:00,
2013-08-09 12:36:00,73.4,68.3,30.02,NE,45,2.0,2.9,84,0.00,,,0.01,WUHU216HW,2013-08-09 17:36:00,
2013-08-09 12:41:00,73.8,68.7,30.02,ENE,68,1.3,2.9,84,0.00,,,0.01,WUHU216HW,2013-08-09 17:41:00,
2013-08-09 12:46:00,74.0,68.9,30.02,NE,45,3.4,3.4,84,0.00,,,0.01,WUHU216HW,2013-08-09 17:46:00,
2013-08-09 12:51:00,73.8,68.3,30.02,North,0,1.3,3.4,83,0.00,,,0.01,WUHU216HW,2013-08-09 17:51:00,
2013-08-09 12:56:00,73.8,68.7,30.02,NE,45,2.2,3.4,84,0.00,,,0.01,WUHU216HW,2013-08-09 17:56:00,
2013-08-09 13:01:00,73.6,68.9,30.02,NNE,23,1.1,2.5,85,0.00,,,0.01,WUHU216HW,2013-08-09 18:01:00,
2013-08-09 13:06:00,73.6,68.9,30.02,NE,45,2.2,2.5,85,0.00,,,0.01,WUHU216HW,2013-08-09 18:06:00,
2013-08-09 13:11:00,73.8,69.0,30.02,NNE,23,2.0,2.2,85,0.00,,,0.01,WUHU216HW,2013-08-09 18:11:00,
2013-08-09 13:16:00,74.0,68.5,30.02,NNE,23,4.5,4.5,83,0.00,,,0.01,WUHU216HW,2013-08-09 18:16:00,
2013-08-09 13:21:00,74.2,69.0,30.01,NNE,23,5.4,5.4,84,0.00,,,0.01,WUHU216HW,2013-08-09 18:21:00,
2013-08-09 13:26:00,74.2,69.0,30.01,ENE,68,4.0,5.4,84,0.00,,,0.01,WUHU216HW,2013-08-09 18:26:00,
2013-08-09 13:31:00,74.2,68.7,30.01,ENE,68,3.4,7.8,83,0.00,,,0.01,WUHU216HW,2013-08-09 18:31:00,
2013-08-09 13:36:00,74.3,69.2,30.01,ENE,68,3.1,7.8,84,0.00,,,0.01,WUHU216HW,2013-08-09 18:36:00,
2013-08-09 13:41:00,74.3,68.9,30.01,NE,45,3.6,6.9,83,0.00,,,0.01,WUHU216HW,2013-08-09 18:41:00,
2013-08-09 13:46:00,74.3,68.9,30.01,ENE,68,4.7,6.9,83,0.00,,,0.01,WUHU216HW,2013-08-09 18:46:00,
2013-08-09 13:51:00,74.3,68.6,30.01,North,0,3.6,4.7,82,0.00,,,0.01,WUHU216HW,2013-08-09 18:51:00,
2013-08-09 13:56:00,74.5,69.0,30.00,NNW,338,3.6,4.7,83,0.00,,,0.01,WUHU216HW,2013-08-09 18:56:00,
2013-08-09 14:01:00,74.7,69.2,30.00,North,0,4.3,4.3,83,0.00,,,0.01,WUHU216HW,2013-08-09 19:01:00,
2013-08-09 14:06:00,74.5,68.8,30.00,North,0,5.4,5.4,82,0.00,,,0.01,WUHU216HW,2013-08-09 19:06:00,
2013-08-09 14:11:00,74.5,68.4,30.00,NNE,23,5.1,5.4,81,0.00,,,0.01,WUHU216HW,2013-08-09 19:11:00,
2013-08-09 14:16:00,74.5,68.8,30.01,NE,45,4.5,5.4,82,0.00,,,0.01,WUHU216HW,2013-08-09 19:16:00,
2013-08-09 14:21:00,74.5,68.8,30.01,North,0,4.0,5.4,82,0.00,,,0.01,WUHU216HW,2013-08-09 19:21:00,
2013-08-09 14:26:00,74.5,68.8,30.01,North,0,3.6,4.5,82,0.00,,,0.01,WUHU216HW,2013-08-09 19:26:00,
2013-08-09 14:31:00,74.5,68.8,30.01,North,0,2.5,4.0,82,0.00,,,0.01,WUHU216HW,2013-08-09 19:31:00,
2013-08-09 14:36:00,74.5,68.8,30.01,North,0,2.5,2.5,82,0.00,,,0.01,WUHU216HW,2013-08-09 19:36:00,
2013-08-09 14:41:00,74.5,68.4,30.01,North,0,5.8,5.8,81,0.00,,,0.01,WUHU216HW,2013-08-09 19:41:00,
2013-08-09 14:46:00,74.3,68.6,30.01,NNE,23,2.2,5.8,82,0.00,,,0.01,WUHU216HW,2013-08-09 19:46:00,
2013-08-09 14:51:00,74.3,68.6,30.01,North,0,2.2,5.8,82,0.00,,,0.01,WUHU216HW,2013-08-09 19:51:00,
2013-08-09 14:56:00,74.3,68.6,30.02,NE,45,4.0,4.0,82,0.00,,,0.01,WUHU216HW,2013-08-09 19:56:00,
2013-08-09 15:01:00,74.3,68.9,30.01,NNE,23,4.0,4.0,83,0.00,,,0.01,WUHU216HW,2013-08-09 20:01:00,
2013-08-09 15:06:00,74.2,68.7,30.02,NNE,23,2.5,4.0,83,0.00,,,0.01,WUHU216HW,2013-08-09 20:06:00,
2013-08-09 15:11:00,74.2,68.7,30.02,North,0,2.5,4.0,83,0.00,,,0.01,WUHU216HW,2013-08-09 20:11:00,
2013-08-09 15:16:00,74.0,68.9,30.02,NNW,338,1.6,2.5,84,0.00,,,0.01,WUHU216HW,2013-08-09 20:16:00,
2013-08-09 15:21:00,73.8,68.7,30.02,NNE,23,3.6,3.6,84,0.00,,,0.01,WUHU216HW,2013-08-09 20:21:00,
2013-08-09 15:26:00,73.8,68.7,30.02,North,0,3.1,3.6,84,0.00,,,0.01,WUHU216HW,2013-08-09 20:26:00,
2013-08-09 15:31:00,74.0,69.2,30.02,North,0,1.8,3.6,85,0.00,,,0.01,WUHU216HW,2013-08-09 20:31:00,
2013-08-09 15:36:00,74.0,69.2,30.02,NNW,338,1.1,1.8,85,0.00,,,0.01,WUHU216HW,2013-08-09 20:36:00,
2013-08-09 15:41:00,74.0,69.2,30.02,NNW,338,2.0,2.0,85,0.00,,,0.01,WUHU216HW,2013-08-09 20:41:00,
2013-08-09 15:46:00,73.4,68.7,30.02,North,0,3.8,3.8,85,0.00,,,0.01,WUHU216HW,2013-08-09 20:46:00,
2013-08-09 15:51:00,73.4,69.0,30.02,NNW,338,4.0,4.0,86,0.00,,,0.01,WUHU216HW,2013-08-09 20:51:00,
2013-08-09 15:56:00,73.3,68.9,30.02,North,0,1.8,5.1,86,0.00,,,0.01,WUHU216HW,2013-08-09 20:56:00,
2013-08-09 16:01:00,73.4,69.0,30.02,NNW,338,2.2,5.1,86,0.00,,,0.01,WUHU216HW,2013-08-09 21:01:00,
2013-08-09 16:06:00,73.4,69.4,30.02,North,0,1.3,2.2,87,0.00,,,0.01,WUHU216HW,2013-08-09 21:06:00,
2013-08-09 16:11:00,73.4,69.0,30.02,NNW,338,1.1,2.2,86,0.00,,,0.01,WUHU216HW,2013-08-09 21:11:00,
2013-08-09 16:16:00,73.1,68.7,30.02,North,0,2.5,2.5,86,0.00,,,0.01,WUHU216HW,2013-08-09 21:16:00,
2013-08-09 16:21:00,73.1,68.7,30.01,NNE,23,1.8,2.5,86,0.00,,,0.01,WUHU216HW,2013-08-09 21:21:00,
2013-08-09 16:26:00,73.1,68.3,30.02,North,0,2.7,2.7,85,0.00,,,0.01,WUHU216HW,2013-08-09 21:26:00,
2013-08-09 16:31:00,73.1,68.0,30.02,North,0,4.5,4.5,84,0.00,,,0.01,WUHU216HW,2013-08-09 21:31:00,
2013-08-09 16:36:00,73.1,68.0,30.02,North,0,3.4,4.5,84,0.00,,,0.01,WUHU216HW,2013-08-09 21:36:00,
2013-08-09 16:41:00,73.1,68.0,30.01,North,0,3.4,4.5,84,0.00,,,0.01,WUHU216HW,2013-08-09 21:41:00,
2013-08-09 16:46:00,73.1,68.0,30.02,North,0,2.5,3.4,84,0.00,,,0.01,WUHU216HW,2013-08-09 21:46:00,
2013-08-09 16:51:00,72.9,68.1,30.02,North,0,1.8,3.4,85,0.00,,,0.01,WUHU216HW,2013-08-09 21:51:00,
2013-08-09 16:56:00,72.9,67.8,30.02,NNW,338,1.1,3.1,84,0.01,,,0.02,WUHU216HW,2013-08-09 21:56:00,
2013-08-09 17:01:00,72.9,68.1,30.02,North,0,1.8,3.1,85,0.01,,,0.02,WUHU216HW,2013-08-09 22:01:00,
2013-08-09 17:06:00,72.9,67.8,30.02,NNW,338,0.7,1.8,84,0.01,,,0.02,WUHU216HW,2013-08-09 22:06:00,
2013-08-09 17:11:00,73.1,68.3,30.02,North,0,2.5,3.4,85,0.01,,,0.02,WUHU216HW,2013-08-09 22:11:00,
2013-08-09 17:16:00,73.1,68.3,30.02,North,0,1.1,3.4,85,0.01,,,0.02,WUHU216HW,2013-08-09 22:16:00,
2013-08-09 17:21:00,73.3,68.5,30.02,North,0,2.5,2.5,85,0.01,,,0.02,WUHU216HW,2013-08-09 22:21:00,
2013-08-09 17:26:00,73.3,68.9,30.02,North,0,2.9,2.9,86,0.01,,,0.02,WUHU216HW,2013-08-09 22:26:00,
2013-08-09 17:31:00,73.1,68.7,30.02,North,0,2.5,2.9,86,0.01,,,0.02,WUHU216HW,2013-08-09 22:31:00,
2013-08-09 17:36:00,73.1,68.7,30.02,North,0,1.8,2.9,86,0.01,,,0.02,WUHU216HW,2013-08-09 22:36:00,
2013-08-09 17:41:00,73.1,68.7,30.01,North,0,4.3,4.3,86,0.01,,,0.02,WUHU216HW,2013-08-09 22:41:00,
2013-08-09 17:46:00,73.1,68.7,30.01,NNW,338,5.1,5.1,86,0.01,,,0.02,WUHU216HW,2013-08-09 22:46:00,
2013-08-09 17:51:00,73.1,68.7,30.01,North,0,3.4,5.1,86,0.00,,,0.02,WUHU216HW,2013-08-09 22:51:00,
2013-08-09 17:56:00,73.1,69.0,30.01,North,0,2.5,3.4,87,0.00,,,0.02,WUHU216HW,2013-08-09 22:56:00,
2013-08-09 18:01:00,73.3,69.2,30.01,NNW,338,1.8,3.4,87,0.00,,,0.02,WUHU216HW,2013-08-09 23:01:00,
2013-08-09 18:06:00,73.3,69.2,30.01,North,0,2.5,2.5,87,0.00,,,0.02,WUHU216HW,2013-08-09 23:06:00,
2013-08-09 18:11:00,73.4,69.0,30.01,NNW,338,4.0,4.0,86,0.00,,,0.02,WUHU216HW,2013-08-09 23:11:00,
2013-08-09 18:16:00,73.6,69.6,30.01,North,0,4.0,4.0,87,0.00,,,0.02,WUHU216HW,2013-08-09 23:16:00,
2013-08-09 18:21:00,73.6,69.2,30.01,North,0,3.4,4.0,86,0.00,,,0.02,WUHU216HW,2013-08-09 23:21:00,
2013-08-09 18:26:00,73.4,69.4,30.01,North,0,1.6,4.0,87,0.00,,,0.02,WUHU216HW,2013-08-09 23:26:00,
2013-08-09 18:31:00,73.3,69.2,30.00,North,0,2.5,2.7,87,0.00,,,0.02,WUHU216HW,2013-08-09 23:31:00,
2013-08-09 18:36:00,73.1,68.7,30.00,NNE,23,1.8,3.1,86,0.00,,,0.02,WUHU216HW,2013-08-09 23:36:00,
2013-08-09 18:41:00,73.1,68.7,30.01,North,0,1.8,3.1,86,0.00,,,0.02,WUHU216HW,2013-08-09 23:41:00,
2013-08-09 18:46:00,72.9,68.5,30.00,ENE,68,1.6,1.8,86,0.00,,,0.02,WUHU216HW,2013-08-09 23:46:00,
2013-08-09 18:51:00,72.9,68.1,30.00,NE,45,1.6,1.8,85,0.00,,,0.02,WUHU216HW,2013-08-09 23:51:00,
2013-08-09 18:56:00,72.7,68.3,30.00,NNE,23,1.1,1.8,86,0.00,,,0.02,WUHU216HW,2013-08-09 23:56:00,
2013-08-09 18:57:00,72.7,68.3,30.00,NNE,23,1.1,1.8,86,0.00,,,0.02,WUHU216HW,2013-08-09 23:57:00,
2013-08-09 19:02:00,72.5,68.1,30.00,NE,45,1.8,1.8,86,0.00,,,0.02,WUHU216HW,2013-08-10 00:02:00,
2013-08-09 19:07:00,72.4,68.0,30.00,NNE,23,2.5,2.5,86,0.00,,,0.02,WUHU216HW,2013-08-10 00:07:00,
2013-08-09 19:12:00,72.4,68.3,30.00,North,0,1.3,2.5,87,0.00,,,0.02,WUHU216HW,2013-08-10 00:12:00,
2013-08-09 19:17:00,72.4,68.3,30.01,NNW,338,0.9,1.3,87,0.00,,,0.02,WUHU216HW,2013-08-10 00:17:00,
2013-08-09 19:22:00,72.4,68.3,30.01,NNW,338,0.0,1.3,87,0.00,,,0.02,WUHU216HW,2013-08-10 00:22:00,
2013-08-09 19:27:00,72.0,68.2,30.01,NW,315,0.9,0.9,88,0.00,,,0.02,WUHU216HW,2013-08-10 00:27:00,
2013-08-09 19:32:00,72.2,68.4,30.01,NW,315,0.0,0.9,88,0.00,,,0.02,WUHU216HW,2013-08-10 00:32:00,
2013-08-09 19:37:00,72.0,68.2,30.01,NW,315,0.0,0.9,88,0.00,,,0.02,WUHU216HW,2013-08-10 00:37:00,
2013-08-09 19:42:00,72.0,68.2,30.01,NW,315,0.0,0.0,88,0.00,,,0.02,WUHU216HW,2013-08-10 00:42:00,
2013-08-09 19:47:00,72.0,68.2,30.02,NW,315,0.4,0.4,88,0.00,,,0.02,WUHU216HW,2013-08-10 00:47:00,
2013-08-09 19:52:00,71.6,67.9,30.01,NNW,338,0.0,0.4,88,0.00,,,0.02,WUHU216HW,2013-08-10 00:52:00,
2013-08-09 19:57:00,71.5,67.7,30.02,North,0,1.1,1.6,88,0.00,,,0.02,WUHU216HW,2013-08-10 00:57:00,
2013-08-09 20:02:00,71.3,67.5,30.02,NNW,338,1.1,1.6,88,0.00,,,0.02,WUHU216HW,2013-08-10 01:02:00,
2013-08-09 20:07:00,71.1,67.7,30.02,NNW,338,0.7,1.1,89,0.00,,,0.02,WUHU216HW,2013-08-10 01:07:00,
2013-08-09 20:12:00,71.1,67.7,30.02,NNW,338,0.0,1.1,89,0.00,,,0.02,WUHU216HW,2013-08-10 01:12:00,
2013-08-09 20:17:00,70.9,67.5,30.02,NNW,338,0.0,0.7,89,0.00,,,0.02,WUHU216HW,2013-08-10 01:17:00,
2013-08-09 20:22:00,70.7,67.3,30.02,NNW,338,0.0,0.0,89,0.00,,,0.02,WUHU216HW,2013-08-10 01:22:00,
2013-08-09 20:27:00,70.4,67.0,30.02,NNW,338,0.2,0.2,89,0.00,,,0.02,WUHU216HW,2013-08-10 01:27:00,
2013-08-09 20:32:00,70.2,66.8,30.01,NNW,338,0.4,0.4,89,0.00,,,0.02,WUHU216HW,2013-08-10 01:32:00,
2013-08-09 20:37:00,70.0,66.6,30.02,NNW,338,1.8,1.8,89,0.00,,,0.02,WUHU216HW,2013-08-10 01:37:00,
2013-08-09 20:42:00,70.0,66.6,30.02,NNW,338,0.7,1.8,89,0.00,,,0.02,WUHU216HW,2013-08-10 01:42:00,
2013-08-09 20:47:00,69.8,66.4,30.02,North,0,2.9,2.9,89,0.00,,,0.02,WUHU216HW,2013-08-10 01:47:00,
2013-08-09 20:52:00,69.8,66.4,30.02,North,0,1.3,2.9,89,0.00,,,0.02,WUHU216HW,2013-08-10 01:52:00,
2013-08-09 20:57:00,70.0,66.2,30.02,NNW,338,0.7,2.9,88,0.00,,,0.02,WUHU216HW,2013-08-10 01:57:00,
2013-08-09 21:02:00,70.0,66.2,30.02,North,0,1.8,1.8,88,0.00,,,0.02,WUHU216HW,2013-08-10 02:02:00,
2013-08-09 21:07:00,69.8,66.1,30.02,North,0,1.1,1.8,88,0.00,,,0.02,WUHU216HW,2013-08-10 02:07:00,
2013-08-09 21:12:00,69.5,65.7,30.03,North,0,0.2,1.8,88,0.00,,,0.02,WUHU216HW,2013-08-10 02:12:00,
2013-08-09 21:17:00,69.3,65.6,30.03,North,0,0.0,0.4,88,0.00,,,0.02,WUHU216HW,2013-08-10 02:17:00,
2013-08-09 21:22:00,69.1,65.4,30.04,NW,315,0.7,0.7,88,0.00,,,0.02,WUHU216HW,2013-08-10 02:22:00,
2013-08-09 21:27:00,69.1,65.7,30.04,NW,315,1.1,1.1,89,0.00,,,0.02,WUHU216HW,2013-08-10 02:27:00,
2013-08-09 21:32:00,69.1,65.4,30.04,NW,315,1.1,1.1,88,0.00,,,0.02,WUHU216HW,2013-08-10 02:32:00,
2013-08-09 21:37:00,69.1,65.4,30.04,NW,315,0.7,1.1,88,0.00,,,0.02,WUHU216HW,2013-08-10 02:37:00,
2013-08-09 21:42:00,68.8,65.1,30.04,NNW,338,0.2,1.1,88,0.00,,,0.02,WUHU216HW,2013-08-10 02:42:00,
2013-08-09 21:47:00,68.8,65.1,30.05,NW,315,0.9,0.9,88,0.00,,,0.02,WUHU216HW,2013-08-10 02:47:00,
2013-08-09 21:52:00,68.8,65.1,30.05,NW,315,0.4,0.9,88,0.00,,,0.02,WUHU216HW,2013-08-10 02:52:00,
2013-08-09 21:57:00,68.4,64.7,30.05,NNW,338,0.0,0.9,88,0.00,,,0.02,WUHU216HW,2013-08-10 02:57:00,
2013-08-09 22:02:00,68.0,64.4,30.05,NNW,338,0.0,0.0,88,0.00,,,0.02,WUHU216HW,2013-08-10 03:02:00,
2013-08-09 22:07:00,68.0,64.4,30.05,NNW,338,0.0,0.0,88,0.00,,,0.02,WUHU216HW,2013-08-10 03:07:00,
2013-08-09 22:12:00,67.7,64.0,30.05,NNW,338,0.0,0.0,88,0.00,,,0.02,WUHU216HW,2013-08-10 03:12:00,
2013-08-09 22:17:00,67.5,63.8,30.06,NNW,338,0.0,0.0,88,0.00,,,0.02,WUHU216HW,2013-08-10 03:17:00,
2013-08-09 22:22:00,67.3,63.9,30.06,NNW,338,0.0,0.0,89,0.00,,,0.02,WUHU216HW,2013-08-10 03:22:00,
2013-08-09 22:27:00,67.1,63.7,30.06,NNW,338,0.0,0.0,89,0.00,,,0.02,WUHU216HW,2013-08-10 03:27:00,
2013-08-09 22:32:00,67.0,63.5,30.06,NNW,338,0.0,0.0,89,0.00,,,0.02,WUHU216HW,2013-08-10 03:32:00,
2013-08-09 22:37:00,66.6,63.2,30.06,NNW,338,0.0,0.0,89,0.00,,,0.02,WUHU216HW,2013-08-10 03:37:00,
2013-08-09 22:42:00,66.6,63.2,30.06,NNW,338,0.0,0.0,89,0.00,,,0.02,WUHU216HW,2013-08-10 03:42:00,
2013-08-09 22:47:00,66.8,63.7,30.06,NNW,338,0.0,0.0,90,0.00,,,0.02,WUHU216HW,2013-08-10 03:47:00,
2013-08-09 22:52:00,67.0,63.9,30.06,NNW,338,0.0,0.0,90,0.00,,,0.02,WUHU216HW,2013-08-10 03:52:00,
2013-08-09 22:57:00,67.0,63.9,30.06,NNW,338,0.4,0.4,90,0.00,,,0.02,WUHU216HW,2013-08-10 03:57:00,
2013-08-09 23:01:00,67.0,63.9,30.06,NNW,338,0.0,0.4,90,0.00,,,0.02,WUHU216HW,2013-08-10 04:01:00,
2013-08-09 23:06:00,67.1,64.1,30.06,NNW,338,0.2,0.4,90,0.00,,,0.02,WUHU216HW,2013-08-10 04:06:00,
2013-08-09 23:11:00,67.1,64.1,30.06,NNW,338,0.0,0.2,90,0.00,,,0.02,WUHU216HW,2013-08-10 04:11:00,
2013-08-09 23:16:00,67.1,63.7,30.06,NNW,338,0.2,0.2,89,0.00,,,0.02,WUHU216HW,2013-08-10 04:16:00,
2013-08-09 23:21:00,67.3,63.9,30.06,NNW,338,0.0,0.2,89,0.00,,,0.02,WUHU216HW,2013-08-10 04:21:00,
2013-08-09 23:26:00,67.3,63.9,30.06,NNW,338,0.0,0.0,89,0.00,,,0.02,WUHU216HW,2013-08-10 04:26:00,
2013-08-09 23:31:00,67.3,63.9,30.06,NNW,338,0.0,0.0,89,0.00,,,0.02,WUHU216HW,2013-08-10 04:31:00,
2013-08-09 23:36:00,67.1,63.5,30.06,NNW,338,0.0,0.0,88,0.00,,,0.02,WUHU216HW,2013-08-10 04:36:00,
2013-08-09 23:41:00,67.1,63.5,30.06,NNW,338,0.0,0.0,88,0.00,,,0.02,WUHU216HW,2013-08-10 04:41:00,
2013-08-09 23:46:00,67.1,63.5,30.07,North,0,0.0,0.0,88,0.00,,,0.02,WUHU216HW,2013-08-10 04:46:00,
2013-08-09 23:51:00,67.1,63.5,30.07,NNW,338,0.0,0.4,88,0.00,,,0.02,WUHU216HW,2013-08-10 04:51:00,
2013-08-09 23:56:00,67.1,63.5,30.07,NNW,338,0.9,0.9,88,0.00,,,0.02,WUHU216HW,2013-08-10 04:56:00,